Theta_e
298 297 298 299 309 315 319 325 328 330 331 329 327 327 326 326 325 324 324 322 321 318 315 313 308 304 301 300 297 295 294 291 292 292 292 290 292 291 289 291 293 291 291
295 295 296 297 297 306 315 319 325 329 329 330 330 330 328 328 327 325 324 323 321 319 319 314 310 306 305 300 298 294 293 292 294 296 293 291 293 290 290 290 289 289 289
294 295 295 295 295 296 306 315 320 326 329 331 330 320 320 317 320 323 323 323 322 320 318 317 314 309 305 299 298 297 296 290 291 292 296 286 294 287 288 288 289 286 288
292 292 292 293 294 295 296 307 316 322 327 329 329 325 324 321 324 324 325 323 322 321 319 318 314 308 308 305 301 298 299 296 291 291 290 291 291 291 289 286 287 287 286
295 295 295 296 296 298 295 297 308 316 323 326 329 326 325 326 324 323 322 322 321 322 320 318 315 311 308 306 303 299 298 297 298 294 289 289 287 287 290 293 284 284 285
294 295 296 297 299 303 303 300 303 311 318 324 327 326 324 324 316 315 319 317 312 312 315 317 315 313 310 307 303 301 298 298 299 296 291 290 288 286 285 287 285 284 284
294 294 295 296 298 301 306 307 309 311 316 321 324 324 323 320 317 314 316 310 308 306 309 310 311 310 309 308 304 300 298 298 297 295 294 293 292 289 289 287 284 285 283
293 293 294 295 297 298 303 308 310 310 313 314 315 316 316 315 315 313 312 311 310 308 307 306 306 306 307 306 305 301 299 298 296 297 295 295 293 290 288 287 286 283 282
293 294 294 294 295 297 298 304 307 308 309 310 310 311 311 311 309 307 308 308 305 301 303 304 303 303 302 302 301 300 297 296 295 295 295 294 294 291 291 290 289 290 289
292 293 293 294 295 295 297 298 301 304 305 306 307 306 307 306 306 304 303 302 300 299 298 300 300 299 299 299 299 297 295 294 295 294 294 293 294 292 291 290 289 290 290
292 292 293 294 294 295 296 296 297 299 300 301 301 302 301 300 300 300 299 298 296 296 295 294 295 296 296 295 296 295 293 293 293 293 292 292 292 292 290 289 288 287 288
292 292 292 293 294 294 295 295 296 296 297 298 298 298 298 297 297 297 297 295 295 293 293 292 291 292 292 293 292 292 293 291 291 291 291 291 291 290 290 288 287 287 287
290 291 292 292 292 293 293 293 294 295 295 296 296 296 296 296 296 296 295 293 293 292 291 290 290 290 289 290 291 292 290 290 290 290 289 290 289 288 289 288 287 286 286
290 291 290 290 291 291 292 292 293 294 294 295 295 294 294 294 295 294 293 292 292 291 290 290 289 288 289 288 288 288 289 289 289 289 289 289 288 288 288 287 286 286 285
290 291 291 291 290 290 290 291 291 291 292 292 292 292 292 292 292 291 291 290 290 290 289 288 288 287 286 286 287 287 288 288 287 287 287 288 288 288 289 287 286 286 284
291 290 290 290 289 289 289 289 289 289 289 289 289 289 289 289 289 289 289 288 288 287 284 284 284 284 284 283 288 288 285 286 286 286 286 286 286 286 289 290 290 288 285
289 289 289 289 288 288 287 287 288 288 287 287 287 287 287 286 286 286 285 283 283 282 282 282 282 283 283 286 288 288 285 285 285 285 284 284 284 284 284 286 289 289 290
288 288 288 288 288 287 286 286 287 287 287 286 285 285 284 284 282 282 281 281 280 280 281 281 281 281 282 285 287 287 285 285 285 284 284 283 283 282 282 283 283 285 285
288 288 288 287 286 285 285 286 285 285 284 284 284 283 281 279 279 278 278 278 278 278 279 279 279 278 280 283 286 286 283 283 284 283 284 283 282 283 284 283 282 283 284
286 286 286 285 285 284 284 284 283 283 282 282 282 280 278 274 275 277 276 277 276 278 278 279 278 276 277 281 284 285 283 282 282 281 281 282 282 283 284 283 282 281 282
285 284 284 283 283 283 283 282 282 281 281 281 278 277 277 275 275 275 275 274 274 275 274 275 276 275 276 278 283 285 283 282 282 282 280 280 283 284 284 285 282 282 282
284 284 282 281 280 280 280 280 279 279 279 277 276 274 272 274 275 270 273 272 272 272 273 273 275 277 277 279 282 284 285 285 283 281 280 280 283 284 284 284 285 285 284
282 281 280 278 276 277 276 276 276 276 274 271 271 271 272 274 273 271 274 274 272 273 275 275 275 276 277 277 281 283 284 285 284 283 281 283 283 284 284 284 285 284 283
278 277 277 275 273 273 273 272 271 270 267 267 269 271 271 272 272 274 274 273 274 274 274 274 275 276 277 279 276 277 277 278 280 284 283 283 283 283 282 281 284 285 283
274 273 273 272 270 269 269 266 266 264 266 268 270 271 271 269 272 273 274 274 274 275 274 274 274 275 277 279 281 281 280 278 278 281 280 280 280 280 280 281 280 282 283
270 270 268 267 266 266 265 262 260 261 262 267 268 268 269 271 272 272 275 280 282 284 284 284 283 283 283 283 284 284 284 284 284 281 278 278 278 278 278 278 278 280 280
Wind_Speed
10 7 8 8 10 10 13 15 15 17 13 11 10 9 10 9 8 8 11 11 11 12 11 7 9 9 10 10 11 6 7 3 6 5 2 2 4 4 4 3 3 3 2
7 5 6 7 9 13 15 15 17 17 17 13 11 9 9 8 8 7 10 11 12 12 12 12 11 11 9 10 12 9 6 4 10 5 3 3 4 8 8 5 5 6 3
11 10 8 7 7 9 12 15 17 16 17 17 10 2 4 3 4 8 9 12 14 15 15 14 11 12 10 11 14 13 13 7 8 7 5 3 7 1 3 10 8 6 5
6 7 7 6 5 8 8 11 13 14 14 15 14 14 11 9 8 8 8 9 13 14 14 15 14 14 12 12 12 11 11 8 8 3 7 1 3 5 3 4 7 8 9
5 6 5 6 5 4 5 7 8 9 11 13 15 14 13 9 5 5 9 8 9 12 13 13 13 12 11 12 12 12 13 8 5 3 4 4 1 2 2 3 4 5 8
4 4 4 4 4 4 3 3 6 6 8 12 14 16 15 10 5 5 7 5 3 4 7 10 10 10 10 11 11 12 12 11 9 9 4 4 6 7 4 4 3 4 4
2 4 6 6 6 7 5 4 5 5 6 9 12 15 13 7 8 6 5 5 4 3 6 5 6 6 7 8 8 10 11 12 11 9 8 5 4 1 3 2 1 3 1
1 4 4 5 5 6 5 5 5 4 4 5 4 4 5 4 4 4 3 3 3 3 3 5 4 5 5 6 8 7 8 9 10 12 9 7 7 5 4 5 5 3 4
2 4 4 5 5 5 5 4 4 4 3 4 4 4 4 4 4 5 4 3 3 3 4 4 4 4 5 5 7 6 8 9 10 10 10 10 7 7 8 7 7 8 6
2 2 3 4 3 2 3 5 5 5 3 4 3 3 4 4 5 4 4 3 3 3 3 3 4 4 4 5 6 5 5 7 6 7 9 8 8 6 7 8 7 8 10
4 2 2 2 3 4 5 5 5 6 5 4 4 5 5 5 4 4 3 3 3 3 3 3 3 3 4 4 4 5 5 8 8 8 9 11 10 8 6 6 6 8 8
3 3 4 3 4 5 5 5 5 5 4 3 4 4 5 5 5 4 3 3 3 3 4 4 4 4 4 4 5 5 4 6 7 8 7 9 6 9 7 7 10 9 9
4 4 4 4 4 4 5 5 5 5 4 3 4 3 4 3 2 1 2 3 3 3 3 3 3 4 5 5 6 5 5 6 7 7 8 9 8 8 6 7 7 8 7
4 4 5 4 4 4 5 5 5 4 3 3 3 4 4 3 1 1 1 2 3 4 4 4 4 5 4 5 4 4 5 6 6 6 7 7 7 9 7 7 9 7 7
4 4 4 5 4 5 5 6 5 5 4 3 5 4 4 3 2 1 1 2 3 4 4 4 3 4 4 3 4 5 5 6 5 6 7 7 7 11 10 6 8 8 8
5 5 6 6 5 3 5 5 5 4 4 5 4 4 5 5 5 3 3 1 3 3 2 3 3 4 2 5 8 6 5 5 5 6 6 6 7 9 15 17 17 11 9
7 6 7 6 5 5 4 5 3 2 5 5 4 6 5 4 4 4 3 1 2 1 2 3 3 4 4 9 9 9 4 5 5 6 5 4 5 7 7 12 17 18 19
8 7 6 6 5 4 4 3 4 5 4 4 5 5 7 6 5 5 5 4 2 2 3 3 4 4 5 8 9 9 4 5 7 8 8 8 6 6 6 6 7 9 9
5 4 3 3 4 5 3 5 6 5 6 7 7 7 5 5 5 5 4 2 2 2 2 3 3 4 5 7 9 8 4 4 6 5 5 5 5 7 10 7 8 8 8
6 6 5 4 6 4 4 6 6 6 7 6 6 5 4 3 3 3 4 2 2 3 3 4 3 4 6 6 8 6 3 4 4 4 4 8 6 11 13 8 7 8 6
7 6 6 6 5 5 5 7 6 7 5 5 5 5 4 4 3 4 2 2 3 3 3 4 4 5 5 5 8 9 3 4 4 5 4 4 11 13 13 14 7 8 5
7 6 7 6 6 6 6 6 6 5 5 6 5 5 4 4 3 2 3 3 2 3 4 4 4 3 4 7 9 10 10 8 5 6 5 5 11 11 13 11 11 11 8
6 5 6 7 6 6 6 5 5 6 6 5 4 3 5 4 3 3 4 3 2 3 4 3 3 4 3 3 8 10 11 11 8 4 8 12 11 10 8 11 12 9 5
6 3 6 6 5 5 6 5 6 7 5 4 4 4 5 6 4 3 3 3 4 4 4 4 4 4 3 3 2 3 4 7 7 6 7 7 8 7 7 4 7 4 5
4 3 5 5 4 4 5 5 6 5 4 4 4 4 3 4 6 4 5 4 5 5 4 4 4 3 4 3 4 5 3 3 5 5 3 4 3 4 4 4 4 5 4
4 4 4 5 4 4 4 5 5 5 5 6 5 5 6 6 5 6 7 8 14 15 15 17 12 6 13 11 10 10 10 9 9 3 3 4 4 5 5 5 5 5 5
Wind_Direction
258 238 229 220 211 203 204 205 195 200 194 195 191 191 192 190 183 189 195 188 187 183 181 176 166 170 178 176 162 148 158 155 155 127 125 261 252 232 230 214 219 205 215
269 250 244 234 213 216 212 207 206 198 200 200 199 204 189 202 192 188 196 192 188 188 191 183 184 184 179 177 180 168 158 160 187 159 123 204 226 232 219 214 217 220 200
280 279 258 247 234 221 212 211 210 202 198 202 195 109 111 85 165 190 193 199 194 194 195 196 189 186 188 186 187 187 186 174 194 202 149 131 224 142 175 225 222 219 209
280 293 292 285 254 244 217 215 209 206 200 192 197 192 200 196 204 195 195 195 198 199 201 199 192 191 194 199 198 193 201 171 182 197 240 181 152 190 216 223 227 227 226
317 316 322 311 304 308 240 219 196 196 193 190 200 202 210 215 174 174 191 188 199 209 204 201 197 195 199 206 197 192 202 206 174 225 140 192 197 272 227 223 207 220 229
338 349 350 6 3 5 22 199 189 198 185 190 200 210 211 207 154 169 188 189 177 183 196 197 202 203 208 204 205 200 199 194 210 197 226 195 168 183 187 227 205 217 197
351 13 20 23 17 15 33 68 139 150 162 183 204 218 216 188 179 169 184 166 167 188 202 192 191 195 194 193 189 196 198 202 210 200 204 212 234 107 163 191 132 250 222
135 61 35 36 29 19 24 71 111 122 162 168 171 134 144 148 157 168 157 174 182 176 158 172 181 196 188 190 189 193 202 204 208 214 214 212 216 176 166 169 160 239 227
121 78 59 52 36 31 26 73 108 112 134 142 121 120 120 131 140 133 134 150 138 140 198 166 200 201 202 196 185 193 197 195 203 212 211 214 215 200 202 200 198 221 252
49 57 45 45 56 54 39 52 81 94 87 101 113 132 134 128 122 126 142 151 145 153 161 182 198 200 207 202 197 196 195 193 209 213 215 218 228 214 213 214 217 221 239
171 179 99 80 87 82 69 75 75 92 94 104 112 117 116 116 119 131 151 160 151 183 195 207 215 218 209 217 215 207 191 205 209 207 208 218 218 218 205 208 210 217 221
130 77 63 64 54 66 69 78 81 92 92 109 111 120 124 129 136 145 171 169 171 174 218 190 204 216 225 222 211 215 217 216 224 221 220 225 218 222 206 205 217 221 219
93 85 84 79 84 75 72 74 71 76 75 79 92 87 87 90 89 149 188 187 178 193 197 202 232 233 221 222 225 221 217 218 219 215 219 227 211 226 221 214 218 222 226
129 122 99 87 79 74 75 68 60 54 74 88 102 84 71 60 31 294 276 261 233 217 198 208 206 223 222 227 231 223 229 223 218 225 227 233 219 230 217 213 218 217 217
115 112 95 75 71 70 66 55 47 32 3 86 84 59 33 42 50 44 359 274 235 251 249 214 210 242 233 226 217 223 235 231 232 231 234 236 227 227 222 214 220 212 215
135 119 99 96 81 56 68 63 41 21 28 52 40 57 62 37 29 5 21 325 266 239 204 235 239 247 246 253 251 238 227 228 233 251 244 233 233 241 245 244 238 219 219
156 143 137 139 132 108 91 77 60 55 68 61 45 55 54 55 25 16 20 344 273 212 241 240 237 251 247 250 249 244 218 221 229 243 253 249 232 239 246 255 255 247 238
164 161 154 139 128 115 95 110 72 63 68 59 45 34 30 20 6 8 10 351 351 314 288 276 261 262 263 268 260 252 233 230 232 226 219 226 232 223 232 239 242 246 235
149 140 118 97 103 87 75 85 67 59 47 31 21 10 10 355 357 357 341 312 301 291 264 258 260 259 279 282 266 259 242 245 255 254 246 253 260 251 259 246 250 254 238
127 131 121 97 84 46 42 60 48 50 40 20 359 346 344 328 318 311 307 281 269 267 291 290 255 255 270 280 272 270 238 246 251 238 245 241 236 255 254 250 232 240 226
113 98 81 81 60 37 47 60 57 46 2 356 346 353 350 332 322 322 328 307 301 305 297 287 292 276 254 279 277 272 237 232 253 249 236 230 250 262 264 255 228 235 171
97 89 91 74 47 41 58 69 56 358 1 352 351 340 328 318 320 305 302 294 296 293 289 291 291 272 270 259 274 277 274 258 236 236 225 235 254 262 265 259 247 221 208
98 80 107 99 50 37 41 61 11 1 351 350 335 320 331 332 332 310 298 300 276 277 283 279 289 292 281 269 276 285 279 276 269 232 228 243 258 266 272 251 246 219 186
104 92 101 90 69 28 44 44 12 354 342 326 329 333 345 334 323 301 270 271 272 272 267 273 268 270 262 284 280 274 284 287 286 281 239 239 251 247 250 241 260 230 198
105 90 103 108 85 33 43 30 13 348 338 318 328 333 310 318 317 291 274 254 246 231 257 251 249 266 275 268 259 276 248 235 254 261 222 230 224 236 242 236 231 235 199
131 104 76 65 44 40 39 31 11 7 1 348 353 342 329 326 317 317 313 281 274 277 270 266 257 244 245 251 264 282 271 272 250 203 208 220 219 227 227 229 233 223 224